When you browse on this site, cookies collect data to enhance your experience and personalize the content and advertising you see.
Visit our Privacy Policy to learn more. By continuing to use the site, you agree to this use of cookies and data.
  • In Romania
  • List of Countries
  • For 7 days
  • Water Temperature
  • Weather Map
  • Weather Widgets
  • user-avatar
    Login

    Hourly Weather Trondheim

    Today, 17 January, Friday

    Time Temperature Precipitation Wind Pressure Humidity
    00:00 +1°C° 0 mm 2 mps 751 mmHg 78%
    01:00 +1°C° 0 mm 2 mps 751 mmHg 78%
    02:00 +1°C° 0 mm 2 mps 750 mmHg 78%
    03:00 +1°C° 0 mm 2 mps 749 mmHg 77%
    04:00 +1°C° 0 mm 2 mps 749 mmHg 77%
    05:00 0°C° 0 mm 3 mps 748 mmHg 78%
    06:00 0°C° 0 mm 3 mps 748 mmHg 79%
    07:00 +1°C° 0 mm 3 mps 748 mmHg 80%
    08:00 +1°C° 0.1 mm 3 mps 747 mmHg 81%
    09:00 +2°C° 0.1 mm 2 mps 747 mmHg 83%
    10:00 +2°C° 0.1 mm 2 mps 747 mmHg 84%
    11:00 +3°C° 0 mm 2 mps 747 mmHg 84%
    12:00 +4°C° 0 mm 1 mps 747 mmHg 83%
    13:00 +4°C° 0 mm 1 mps 747 mmHg 83%
    14:00 +4°C° 0 mm 1 mps 747 mmHg 84%
    15:00 +3°C° 0 mm 2 mps 747 mmHg 85%
    16:00 +3°C° 0 mm 2 mps 746 mmHg 86%
    17:00 +3°C° 0 mm 2 mps 746 mmHg 86%
    18:00 +3°C° 0 mm 2 mps 746 mmHg 87%
    19:00 +3°C° 0 mm 2 mps 746 mmHg 88%
    20:00 +3°C° 0 mm 2 mps 746 mmHg 88%
    21:00 +3°C° 0 mm 2 mps 746 mmHg 88%
    22:00 +2°C° 0 mm 2 mps 745 mmHg 87%
    23:00 +2°C° 0 mm 2 mps 745 mmHg 87%

    Tomorrow, 18 January, Saturday

    Time Temperature Precipitation Wind Pressure Humidity
    00:00 +2°C° 0 mm 2 mps 745 mmHg 87%
    01:00 +2°C° 0 mm 2 mps 745 mmHg 87%
    02:00 +2°C° 0 mm 2 mps 745 mmHg 87%
    03:00 +1°C° 0 mm 2 mps 745 mmHg 86%
    04:00 +1°C° 0 mm 2 mps 744 mmHg 86%
    05:00 +1°C° 0 mm 2 mps 744 mmHg 86%
    06:00 +1°C° 0 mm 2 mps 744 mmHg 86%
    07:00 +1°C° 0 mm 2 mps 744 mmHg 86%
    08:00 +2°C° 0 mm 1 mps 744 mmHg 85%
    09:00 +2°C° 0 mm 1 mps 745 mmHg 84%
    10:00 +2°C° 0 mm 1 mps 745 mmHg 84%
    11:00 +2°C° 0 mm 1 mps 745 mmHg 82%
    12:00 +2°C° 0 mm 1 mps 746 mmHg 81%
    13:00 +3°C° 0 mm 1 mps 746 mmHg 80%
    14:00 +2°C° 0 mm 1 mps 746 mmHg 80%
    15:00 +2°C° 0 mm 1 mps 747 mmHg 80%
    16:00 +1°C° 0 mm 2 mps 747 mmHg 81%
    17:00 0°C° 0.1 mm 3 mps 747 mmHg 82%
    18:00 -1°C° 0.1 mm 4 mps 748 mmHg 83%
    19:00 -1°C° 0.1 mm 5 mps 749 mmHg 83%
    20:00 -1°C° 0.4 mm 6 mps 749 mmHg 87%
    21:00 0°C° 0.4 mm 7 mps 750 mmHg 90%
    22:00 0°C° 0.4 mm 8 mps 750 mmHg 93%
    23:00 0°C° 0.4 mm 8 mps 751 mmHg 94%

    Day after tomorrow, 19 January, Sunday

    Time Temperature Precipitation Wind Pressure Humidity
    00:00 0°C° 0.4 mm 9 mps 752 mmHg 94%
    01:00 0°C° 0.4 mm 10 mps 752 mmHg 94%
    02:00 0°C° 0.7 mm 10 mps 753 mmHg 93%
    03:00 -1°C° 0.7 mm 11 mps 754 mmHg 92%
    04:00 -1°C° 0.7 mm 11 mps 755 mmHg 91%
    05:00 -1°C° 1 mm 11 mps 756 mmHg 92%
    06:00 -1°C° 1 mm 12 mps 757 mmHg 93%
    07:00 -2°C° 1 mm 12 mps 759 mmHg 93%
    08:00 -2°C° 0.8 mm 11 mps 760 mmHg 91%
    09:00 -2°C° 0.8 mm 10 mps 762 mmHg 88%
    10:00 -2°C° 0.8 mm 10 mps 763 mmHg 85%
    11:00 -1°C° 0.1 mm 9 mps 764 mmHg 82%
    12:00 -1°C° 0.1 mm 8 mps 766 mmHg 80%
    13:00 -1°C° 0.1 mm 7 mps 767 mmHg 77%
    14:00 -1°C° 0.1 mm 6 mps 768 mmHg 80%
    15:00 -1°C° 0.1 mm 6 mps 768 mmHg 82%
    16:00 0°C° 0.1 mm 5 mps 769 mmHg 85%
    17:00 -1°C° 0 mm 4 mps 769 mmHg 83%
    18:00 -1°C° 0 mm 4 mps 769 mmHg 81%
    19:00 -1°C° 0 mm 3 mps 769 mmHg 79%
    20:00 -1°C° 0 mm 3 mps 768 mmHg 78%
    21:00 -1°C° 0 mm 3 mps 768 mmHg 78%
    22:00 -1°C° 0 mm 3 mps 767 mmHg 77%
    23:00 -1°C° 0.3 mm 3 mps 767 mmHg 79%

    20 January, Monday

    Time Temperature Precipitation Wind Pressure Humidity
    00:00 -1°C° 0.3 mm 3 mps 766 mmHg 81%
    01:00 0°C° 0.3 mm 3 mps 766 mmHg 83%
    02:00 0°C° 0.1 mm 3 mps 766 mmHg 82%
    03:00 +1°C° 0.1 mm 3 mps 765 mmHg 81%
    04:00 +1°C° 0.1 mm 3 mps 765 mmHg 80%
    05:00 +1°C° 0.1 mm 4 mps 765 mmHg 83%
    06:00 +3°C° 0.1 mm 4 mps 764 mmHg 85%
    07:00 +3°C° 0.1 mm 4 mps 764 mmHg 87%
    08:00 +4°C° 0.1 mm 4 mps 764 mmHg 88%
    09:00 +4°C° 0.1 mm 4 mps 764 mmHg 89%
    10:00 +5°C° 0.1 mm 5 mps 764 mmHg 90%
    11:00 +5°C° 0.2 mm 5 mps 763 mmHg 91%
    12:00 +5°C° 0.2 mm 5 mps 763 mmHg 92%
    13:00 +6°C° 0.2 mm 5 mps 763 mmHg 94%
    14:00 +6°C° 0.3 mm 5 mps 762 mmHg 92%
    15:00 +6°C° 0.3 mm 5 mps 762 mmHg 91%
    16:00 +6°C° 0.3 mm 5 mps 761 mmHg 90%
    17:00 +5°C° 0.1 mm 6 mps 761 mmHg 89%
    18:00 +6°C° 0.1 mm 7 mps 760 mmHg 89%
    19:00 +6°C° 0.1 mm 8 mps 760 mmHg 88%
    20:00 +6°C° 0.2 mm 8 mps 759 mmHg 88%
    21:00 +6°C° 0.2 mm 8 mps 758 mmHg 88%
    22:00 +6°C° 0.2 mm 8 mps 758 mmHg 89%
    23:00 +5°C° 0.9 mm 9 mps 758 mmHg 90%

    21 January, Tuesday

    Time Temperature Precipitation Wind Pressure Humidity
    00:00 +5°C° 0.9 mm 10 mps 758 mmHg 91%
    01:00 +5°C° 0.9 mm 10 mps 758 mmHg 91%
    02:00 +3°C° 1.9 mm 9 mps 758 mmHg 91%
    03:00 +2°C° 1.9 mm 8 mps 758 mmHg 90%
    04:00 +2°C° 1.9 mm 7 mps 759 mmHg 89%
    05:00 +2°C° 0.8 mm 7 mps 759 mmHg 89%
    06:00 +2°C° 0.8 mm 7 mps 759 mmHg 88%
    07:00 +2°C° 0.8 mm 7 mps 759 mmHg 88%
    08:00 +1°C° 0.3 mm 8 mps 759 mmHg 88%
    09:00 0°C° 0.3 mm 8 mps 759 mmHg 87%
    10:00 0°C° 0.3 mm 8 mps 759 mmHg 87%
    11:00 0°C° 0.1 mm 9 mps 759 mmHg 84%
    12:00 0°C° 0.1 mm 9 mps 759 mmHg 81%
    13:00 0°C° 0.1 mm 10 mps 760 mmHg 78%
    14:00 0°C° 0.2 mm 10 mps 760 mmHg 79%
    15:00 -1°C° 0.2 mm 11 mps 760 mmHg 81%
    16:00 -1°C° 0.2 mm 11 mps 760 mmHg 83%
    17:00 -2°C° 0.2 mm 11 mps 760 mmHg 83%
    18:00 -2°C° 0.2 mm 11 mps 760 mmHg 83%
    19:00 -2°C° 0.2 mm 11 mps 760 mmHg 84%
    20:00 -2°C° 0.4 mm 12 mps 761 mmHg 84%
    21:00 -2°C° 0.4 mm 12 mps 761 mmHg 84%
    22:00 -2°C° 0.4 mm 12 mps 761 mmHg 84%
    23:00 -2°C° 0.5 mm 12 mps 761 mmHg 86%

    22 January, Wednesday

    Time Temperature Precipitation Wind Pressure Humidity
    00:00 -2°C° 0.5 mm 11 mps 761 mmHg 87%
    01:00 -2°C° 0.5 mm 11 mps 762 mmHg 89%
    02:00 -2°C° 0.7 mm 11 mps 762 mmHg 89%
    03:00 -2°C° 0.7 mm 10 mps 762 mmHg 90%
    04:00 -2°C° 0.7 mm 10 mps 762 mmHg 90%
    05:00 -1°C° 0.9 mm 9 mps 762 mmHg 89%
    06:00 -1°C° 0.9 mm 8 mps 762 mmHg 89%
    07:00 -2°C° 0.9 mm 7 mps 762 mmHg 88%
    08:00 -2°C° 0.8 mm 7 mps 762 mmHg 87%
    09:00 -2°C° 0.8 mm 6 mps 762 mmHg 85%
    10:00 -2°C° 0.8 mm 6 mps 763 mmHg 84%
    11:00 -1°C° 0.7 mm 5 mps 762 mmHg 87%
    12:00 -1°C° 0.7 mm 5 mps 762 mmHg 90%
    13:00 -1°C° 0.7 mm 4 mps 762 mmHg 93%
    14:00 -1°C° 0.7 mm 4 mps 761 mmHg 94%
    15:00 0°C° 0.7 mm 3 mps 761 mmHg 96%
    16:00 0°C° 0.7 mm 3 mps 761 mmHg 97%
    17:00 +1°C° 0.6 mm 2 mps 760 mmHg 97%
    18:00 +2°C° 0.6 mm 1 mps 760 mmHg 98%
    19:00 +2°C° 0.6 mm 1 mps 759 mmHg 98%
    20:00 +1°C° 0.5 mm 1 mps 759 mmHg 97%
    21:00 +1°C° 0.5 mm 1 mps 758 mmHg 97%
    22:00 +1°C° 0.5 mm 1 mps 757 mmHg 97%
    23:00 +1°C° 0.1 mm 1 mps 757 mmHg 96%
    Show more